Location: Newark
(41.0400°S, 62.7845°W)
Time: 08:44:40
(UTC+00:00)

Envisat - Visible Passes

Search period start: 01 October 2020 00:00
Search period end: 11 October 2020 00:00
Orbit: 764 x 766 km, 98.1° (Epoch: 01 October)

Date Brightness Start Highest point End Pass type
(mag) Time Alt. Az. Time Alt. Az. Time Alt. Az.
01 Oct 5.1 08:32:51 10° NE 08:37:19 31° ESE 08:41:48 10° S visible
02 Oct 6.4 00:01:35 10° SW 00:03:24 12° WSW 00:05:12 10° W visible
02 Oct 6.2 07:58:04 10° E 08:00:56 15° ESE 08:03:48 10° SSE visible
02 Oct 5.6 23:22:58 10° SSW 23:27:05 25° WSW 23:31:09 10° WNW visible
03 Oct 4.0 08:57:38 10° NNE 09:02:35 53° ESE 09:07:36 10° S visible
03 Oct 4.1 22:45:33 10° S 22:50:33 52° WSW 22:55:29 10° NNW visible
04 Oct 5.5 08:21:56 10° ENE 08:26:03 25° ESE 08:30:12 10° SSE visible
04 Oct 6.2 23:49:24 10° SSW 23:52:12 15° WSW 23:54:59 10° W visible
05 Oct 6.4 07:47:48 10° E 07:49:44 12° ESE 07:51:40 10° SE visible
05 Oct 5.2 23:11:21 10° S 23:15:49 30° WSW 23:20:14 10° NW visible
06 Oct 4.5 08:46:30 10° NE 08:51:17 42° ESE 08:56:07 10° S visible
07 Oct 5.9 08:11:07 10° ENE 08:14:48 20° ESE 08:18:30 10° SSE visible
07 Oct 6.1 23:37:31 10° SSW 23:40:58 18° WSW 23:44:25 10° WNW visible
08 Oct 4.8 22:59:48 10° S 23:04:32 38° WSW 23:09:13 10° NW visible
09 Oct 5.0 08:35:26 10° NE 08:39:59 34° ESE 08:44:35 10° S visible
10 Oct 6.6 00:04:48 10° SW 00:06:03 11° WSW 00:07:16 10° WSW visible
10 Oct 6.2 08:00:28 10° E 08:03:35 16° ESE 08:06:43 10° SSE visible
10 Oct 5.8 23:25:47 10° SSW 23:29:45 23° WSW 23:33:40 10° WNW visible
